Home   Weather   Detroit   Past weeks

Flag for USA Past Weather in Detroit, Michigan, USA — Yesterday and Last 2 Weeks

Now
52 °F

Clear.


Feels Like: 52 °F
Forecast: 54 / 72 °F
Wind: No wind

Location: Detroit City Airport

Current Time: Sep 25, 2016 at 4:54:09 AM

Latest Report: Sep 25, 2016 at 3:53 AM


Visibility: 10 mi

Pressure: 30.21 "Hg

Humidity: 83%

Dew Point: 47 °F

Location of DetroitLocation

Past Weather in Detroit — Graph

°F

Detroit Temperature Yesterday

Maximum temperature yesterday: 69 °F (at 4:53 PM)
Minimum temperature yesterday: 56 °F (at 6:53 AM)
Average temperature yesterday: 62 °F

High & Low Weather Summary for the Past Weeks

 TemperatureHumidityPressure
High85 °F (Sep 22, 1:53 PM)100% (Sep 10, 4:53 AM)30.31 "Hg (Sep 10, 4:53 AM)
Low53 °F (Sep 15, 6:53 AM)37% (Sep 11, 4:53 PM)29.74 "Hg (Sep 10, 3:53 PM)
Average68 °F75%30.09 "Hg
* Reported Sep 10 2:53 AM — Sep 25 2:53 AM, Detroit, Weather by CustomWeather, © 2016

Note: Actual official high and low records may vary slightly from our data, if they occured in-between our weather recording intervals... More about our weather records

Advertising

Detroit Weather History for the Previous 24 Hours

Scroll right to see more
 ConditionsComfort  
Time TempWeatherWind HumidityBarometerVisibility
2:53 AM
Sun, Sep 25
53 °FClear.3 mph80%30.22 "Hg10 mi
1:53 AM54 °FClear.No wind77%30.23 "Hg10 mi
12:53 AM56 °FClear.3 mph72%30.24 "Hg10 mi
11:53 PM
Sat, Sep 24
57 °FClear.5 mph72%30.23 "Hg10 mi
10:53 PM58 °FClear.3 mph67%30.22 "Hg10 mi
9:53 PM58 °FClear.3 mph67%30.22 "Hg10 mi
8:53 PM60 °FClear.7 mph60%30.22 "Hg10 mi
7:53 PM62 °FClear.7 mph62%30.21 "Hg10 mi
6:53 PM65 °FSunny.6 mph52%30.21 "Hg10 mi
5:53 PM67 °FSunny.5 mph45%30.20 "Hg10 mi
4:53 PM69 °FSunny.6 mph45%30.21 "Hg10 mi
3:53 PM67 °FSunny.5 mph47%30.23 "Hg10 mi
2:53 PM66 °FSunny.7 mph56%30.24 "Hg10 mi
1:53 PM67 °FSunny.9 mph57%30.25 "Hg10 mi
12:53 PM66 °FScattered clouds.13 mph59%30.27 "Hg10 mi
11:53 AM63 °FSunny.8 mph70%30.27 "Hg10 mi
10:53 AM64 °FSunny.9 mph70%30.27 "Hg10 mi
9:53 AM63 °FSunny.9 mph73%30.27 "Hg10 mi
8:53 AM60 °FSunny.8 mph83%30.25 "Hg10 mi
7:53 AM57 °FSunny.5 mph83%30.24 "Hg10 mi
6:53 AM56 °FClear.6 mph87%30.22 "Hg10 mi
5:53 AM57 °FClear.6 mph83%30.20 "Hg10 mi
4:53 AM58 °FClear.5 mph81%30.17 "Hg10 mi
Weather by CustomWeather, © 2016

See weather overviewHow to use our weather pages